Location: Newark
(22.3060°N, 114.2134°E)
Time: 11:33:27
(UTC+00:00)

Vanguard 3 - All Passes

Search period start: 03 August 2021 00:00
Search period end: 13 August 2021 00:00
Orbit: 508 x 3261 km, 33.4° (Epoch: 02 August)

Date Brightness Start Highest point End Pass type
(mag) Time Alt. Az. Time Alt. Az. Time Alt. Az.
03 Aug - 05:06:05 10° SE 05:07:40 11° SE 05:09:23 10° ESE daylight
03 Aug - 07:10:11 10° SW 07:18:38 59° SE 07:33:35 10° ENE daylight
03 Aug - 09:21:40 10° W 09:33:31 70° NNW 09:52:35 10° ENE daylight
03 Aug - 11:36:11 10° WNW 11:52:13 58° N 12:11:56 10° E visible
03 Aug - 13:52:13 10° WNW 14:11:53 74° NNE 14:29:36 10° ESE visible
03 Aug - 16:09:33 10° WNW 16:29:06 64° SW 16:43:00 10° SE visible
03 Aug - 18:31:49 10° W 18:42:32 20° SW 18:50:44 10° S visible
04 Aug - 05:57:53 10° SSW 06:04:23 32° SE 06:14:47 10° ENE daylight
04 Aug - 08:07:24 10° WSW 08:17:01 86° NNW 08:34:12 10° ENE daylight
04 Aug - 10:20:32 10° W 10:33:59 59° N 10:53:31 10° ENE daylight
04 Aug - 12:35:42 10° WNW 12:53:28 64° NNE 13:12:45 10° E visible
04 Aug - 14:51:55 10° WNW 15:12:09 85° SSW 15:28:31 10° ESE visible
04 Aug - 17:10:49 10° WNW 17:27:26 38° SW 17:39:22 10° SSE visible
05 Aug - 04:48:09 10° SSE 04:50:51 12° SE 04:54:01 10° ESE daylight
05 Aug - 06:53:57 10° SW 07:01:44 66° SE 07:15:54 10° ENE daylight
05 Aug - 09:05:34 10° W 09:16:35 64° NNW 09:34:52 10° ENE daylight
05 Aug - 11:19:45 10° WNW 11:35:00 58° N 11:54:47 10° E visible
05 Aug - 13:35:07 10° WNW 13:54:19 78° NNE 14:12:47 10° ESE visible
05 Aug - 15:52:04 10° WNW 16:11:25 58° SW 16:26:09 10° SE visible
05 Aug - 18:15:14 10° W 18:25:12 18° SW 18:33:14 10° SSW visible
06 Aug - 05:41:28 10° SSW 05:47:32 36° SE 05:57:33 10° ENE daylight
06 Aug - 07:51:20 10° WSW 08:00:14 78° NNW 08:16:23 10° ENE daylight
06 Aug - 10:04:22 10° W 10:17:00 56° N 10:36:03 10° ENE daylight
06 Aug - 12:18:57 10° WNW 12:36:03 66° NNE 12:55:46 10° E visible
06 Aug - 14:34:37 10° WNW 14:54:26 79° SSW 15:11:38 10° SE visible
06 Aug - 16:53:34 10° W 17:09:50 34° SW 17:22:16 10° SSE visible
07 Aug - 04:30:57 10° SSE 04:34:05 14° SE 04:38:00 10° E daylight
07 Aug - 06:37:50 10° SW 06:44:59 74° SSE 06:58:15 10° ENE daylight
07 Aug - 08:49:34 10° W 08:59:47 60° N 09:17:09 10° ENE daylight
07 Aug - 11:03:21 10° WNW 11:17:50 58° N 11:37:33 10° E visible
07 Aug - 13:18:06 10° WNW 13:36:41 83° NNE 13:55:49 10° ESE visible
07 Aug - 15:34:44 10° WNW 15:53:40 53° SW 16:09:07 10° SSE visible
07 Aug - 17:59:05 10° W 18:07:52 15° SW 18:15:20 10° SSW visible
08 Aug - 05:25:10 10° SSW 05:30:49 40° SE 05:40:20 10° ENE daylight
08 Aug - 07:35:22 10° WSW 07:43:34 71° NNW 07:58:37 10° ENE daylight
08 Aug - 09:48:15 10° WNW 10:00:05 54° N 10:18:34 10° ENE daylight
08 Aug - 12:02:17 10° WNW 12:18:37 69° NNE 12:38:39 10° E visible
08 Aug - 14:17:25 10° WNW 14:36:39 73° SW 14:54:34 10° SE visible
08 Aug - 16:36:33 10° W 16:52:12 30° SW 17:04:57 10° S visible
09 Aug - 04:14:03 10° SSE 04:17:25 16° SE 04:21:46 10° E daylight
09 Aug - 06:21:48 10° WSW 06:28:23 84° SSE 06:40:40 10° ENE daylight
09 Aug - 08:33:38 10° W 08:43:07 55° N 08:59:28 10° ENE daylight
09 Aug - 10:47:01 10° WNW 11:00:41 59° NNE 11:20:15 10° E visible
09 Aug - 13:01:10 10° WNW 13:19:01 88° NNE 13:38:40 10° ESE visible
09 Aug - 15:17:34 10° WNW 15:35:52 48° SW 15:51:53 10° SSE visible
09 Aug - 17:43:35 10° WSW 17:50:33 13° SW 17:56:49 10° SSW visible
10 Aug - 05:08:59 10° SW 05:14:13 47° SE 05:23:10 10° ENE daylight
10 Aug - 07:19:29 10° W 07:27:03 63° NNW 07:40:55 10° ENE daylight
10 Aug - 09:32:12 10° WNW 09:43:15 53° N 10:01:03 10° ENE daylight
10 Aug - 11:45:40 10° WNW 12:01:11 72° NNE 12:21:24 10° ESE visible
10 Aug - 14:00:22 10° WNW 14:18:50 67° SW 14:37:18 10° SE visible
10 Aug - 16:19:46 10° W 16:34:35 27° SW 16:47:22 10° S visible
11 Aug - 03:57:23 10° S 04:00:49 19° SE 04:05:25 10° E daylight
11 Aug - 06:05:52 10° WSW 06:11:56 84° NNW 06:23:09 10° ENE daylight
11 Aug - 08:17:46 10° WNW 08:26:33 51° N 08:41:50 10° ENE daylight
11 Aug - 10:30:43 10° WNW 10:43:35 60° NNE 11:02:52 10° E daylight
11 Aug - 12:44:21 10° WNW 13:01:19 87° SSW 13:21:21 10° ESE visible
11 Aug - 15:00:35 10° WNW 15:18:05 43° SW 15:34:25 10° SSE visible
11 Aug - 17:29:37 10° WSW 17:33:19 11° SW 17:36:50 10° SW visible
12 Aug - 04:52:52 10° SW 04:57:45 55° SE 05:06:03 10° ENE daylight
12 Aug - 07:03:42 10° W 07:10:40 55° NNW 07:23:17 10° ENE daylight
12 Aug - 09:16:10 10° WNW 09:26:29 52° N 09:43:33 10° E daylight
12 Aug - 11:29:07 10° WNW 11:43:45 76° NNE 12:04:01 10° ESE visible
12 Aug - 13:43:29 10° WNW 14:01:02 61° SW 14:19:51 10° SE visible
12 Aug - 16:03:17 10° W 16:17:01 23° SW 16:29:30 10° S visible
